This is the latest recevied weather packets stored in our database for station/object K5GHS-1. If no packets are shown the sender has not sent any weather packets the latest 10 day(s).
| Time | Temp. | Humidity | Pressure | Rain* | Wind** | Luminosity | Snow |
|---|---|---|---|---|---|---|---|
| 1777141829 | 28.89° C | 70% | 1005 hPa | 0 mm | - | 262 W/m² | - |
| 1777141526 | 28.89° C | 71% | 1005 hPa | 0 mm | - | 225 W/m² | - |
| 1777141226 | 29.44° C | 70% | 1005.1 hPa | 0 mm | - | 376 W/m² | - |
| 1777140922 | 29.44° C | 69% | 1005.1 hPa | 0 mm | - | 439 W/m² | - |
| 1777140618 | 28.89° C | 71% | 1005 hPa | 0 mm | - | 228 W/m² | - |
| 1777140315 | 28.89° C | 71% | 1005.3 hPa | 0 mm | - | 261 W/m² | - |
| 1777140013 | 28.89° C | 71% | 1005.3 hPa | 0 mm | - | 262 W/m² | - |
| 1777139710 | 28.89° C | 71% | 1005.2 hPa | 0 mm | - | 245 W/m² | - |
| 1777139410 | 28.89° C | 71% | 1005.5 hPa | 0 mm | - | 244 W/m² | - |
| 1777139106 | 28.89° C | 71% | 1005.6 hPa | 0 mm | - | 298 W/m² | - |
| 1777138803 | 28.89° C | 70% | 1005.6 hPa | 0 mm | - | 549 W/m² | - |
| 1777138498 | 29.44° C | 70% | 1005.4 hPa | 0 mm | - | 239 W/m² | - |
| 1777138195 | 29.44° C | 69% | 1005.7 hPa | 0 mm | - | 809 W/m² | - |
| 1777137891 | 29.44° C | 71% | 1005.8 hPa | 0 mm | - | 771 W/m² | - |
| 1777137587 | 28.89° C | 72% | 1005.9 hPa | 0 mm | - | 700 W/m² | - |
| 1777137285 | 28.33° C | 73% | 1005.9 hPa | 0 mm | - | 319 W/m² | - |
| 1777136982 | 28.33° C | 74% | 1005.9 hPa | 0 mm | - | 340 W/m² | - |
| 1777136678 | 27.78° C | 74% | 1006.1 hPa | 0 mm | - | 260 W/m² | - |
| 1777136376 | 27.78° C | 74% | 1006 hPa | 0 mm | - | 373 W/m² | - |
| 1777136073 | 27.78° C | 75% | 1006.2 hPa | 0 mm | - | 767 W/m² | - |
| 1777135768 | 27.78° C | 75% | 1006.1 hPa | 0 mm | - | 641 W/m² | - |
| 1777135465 | 27.78° C | 75% | 1006.1 hPa | 0 mm | - | 285 W/m² | - |
| 1777135161 | 27.78° C | 74% | 1006.2 hPa | 0 mm | - | 265 W/m² | - |
| 1777134859 | 27.78° C | 75% | 1006.2 hPa | 0 mm | - | 212 W/m² | - |
| 1777134555 | 28.33° C | 74% | 1006.1 hPa | 0 mm | - | 275 W/m² | - |
* Rain latest hour (hover to see other rain measurements)
** Current wind speed in m/s (hover to see current wind gust speed)